Location: Cabeza de los Veneras
(40.2000°N, 5.2000°W)
Time: 10:12:20
(UTC+00:00)

Hubble Space Telescope - Pass Details

Date: 30 June 2024
Orbit: 510 x 513 km, 28.5° (Epoch: 18 July)

Event Time Altitude Azimuth Distance (km) Brightness Sun altitude
Exits shadow 03:38:09 12° 183° (S) 1,608 2.8 -12.3°
Maximum altitude 03:39:01 12° 170° (S) 1,569 2.8 -12.2°
Drops below altitude 10° 03:40:43 10° 144° (SE) 1,719 3.3 -11.9°
Sets 03:44:05 0° 114° (ESE) 2,604 4.6 -11.5°
